CZ-6A DEB

Satellite information

Favourite Embed

Satellite Type and Status

DEBRISIN ORBIT

Key statistics

Satellite CZ-6A DEB at a glance.

Uptime

1024

Days in orbit

Revolutions

≈ 14.6

Per day

Orbit

SSO

Sun Synchronous Orbit

Inclination

98.6

Latest

Satellite identification and parameters

Extended collection of information and parameters for CZ-6A DEB.

Object identification

Identified? True

Debris? True

Object name: CZ-6A DEB

International designator: 2022-151ZQ

Object number (NORAD): 55868

Object ID (CCSDS): 55868

Country: PEOPLES REPUBLIC OF CHINA (PRC)

Current information (Y/N): Y

RCS size: SMALL

Orbital parameters

Period: 98.921 minutes

Inclination: 98.6075 deg

SMA: 7085.229 km

Apoapsis: 761.561 km

Periapsis: 652.626 km

RAAN: 274.7469 deg

Eccentricy: 0.00768744

Argument of periapsis: 130.1307 deg

Mean anomaly: 230.6658 deg

Mean motion: 14.55700275 rev/day

Mean motion (dot): 0.00013618 rev/day2

B* drag term: 0.0029993656 1/REarth

Two-line elements (TLE)

Creation date: Aug. 30, 2025, 11:24 a.m.

Reference frame: TEME

Reference center: EARTH

Epoch: Aug. 30, 2025, 12:38 a.m. UTC

TLE line 0: 0 CZ-6A DEB

TLE line 1: 1 55868U 22151ZQ 25242.02688154 .00013618 00000-0 29994-2 0 9996

TLE line 2: 2 55868 98.6075 274.7469 0076874 130.1307 230.6658 14.55700275 66508

Live tracking on map

Real-time ground track for satellite CZ-6A DEB.

In-orbit conjunctions

A list of the most updated potential collisions computed for object CZ-6A DEB.

Target Orbit TCA Probability of collision Miss distance Type
SL-8 R/B LEO 2025-05-22 07:07:20 0.0003536689 322.0 (m) ROCKET BODY
CZ-2C R/B SSO 2025-04-16 16:32:48 0.0003177853 147.0 (m) ROCKET BODY
COSMOS 1937 LEO 2024-11-21 17:42:51 0.0001253419 603.0 (m) PAYLOAD

Associated space launch

Chinese satellite reported for atmospheric/ocean/environmental/spatial parameter research purposes, details TBD.

CZ-6A DEB was lifted into orbit during the mission ‘Long March 6A | Yunhai 3’, on board a Long March 6A space rocket.

The launch took place on Nov. 11, 2022, 10:52 p.m. from Launch Complex 9A.

For more information about the launch, click the button.

Launch to space Long March 6A | Yunhai 3
Long March 6A | Yunhai 3

Agency: N/A

Status: Launch Successful

Launch date: Nov. 11, 2022, 10:52 p.m. UTC

Rocket: Long March 6A

Launch pad: Launch Complex 9A

Location: Taiyuan Satellite Launch Center, People's Republic of China

...

Latest news about this satellite

There are no fresh news available about this satellite. Check back as we update our databases every day.


Newsletter sign-up

Weekly statistics, charts and insights to help you stay on top of the space industry.